EN

Hourly Weather Nizamabad

Today, 7 March, Sunday

Time Temperature Precipitation Wind Pressure Humidity
00:00 +4°C° 0.1 mm 0 mps 688 mmHg 81%
01:00 +3°C° 0.1 mm 0 mps 688 mmHg 82%
02:00 +3°C° 0.1 mm 0 mps 688 mmHg 84%
03:00 +4°C° 0.6 mm 1 mps 688 mmHg 88%
04:00 +4°C° 0.6 mm 1 mps 688 mmHg 91%
05:00 +4°C° 0 mm 1 mps 688 mmHg 95%
06:00 +4°C° 0.4 mm 1 mps 689 mmHg 95%
07:00 +4°C° 0.4 mm 1 mps 689 mmHg 94%
08:00 +4°C° 0.4 mm 1 mps 689 mmHg 94%
09:00 +4°C° 0.1 mm 2 mps 690 mmHg 92%
10:00 +4°C° 0.1 mm 3 mps 690 mmHg 90%
11:00 +4°C° 0 mm 4 mps 690 mmHg 88%
12:00 +4°C° 0.1 mm 4 mps 690 mmHg 89%
13:00 +4°C° 0.1 mm 4 mps 690 mmHg 90%
14:00 +4°C° 0.1 mm 4 mps 690 mmHg 91%
15:00 +4°C° 0 mm 3 mps 690 mmHg 89%
16:00 +4°C° 0 mm 3 mps 690 mmHg 88%
17:00 +5°C° 0 mm 2 mps 690 mmHg 86%
18:00 +5°C° 0 mm 2 mps 689 mmHg 88%
19:00 +5°C° 0 mm 1 mps 689 mmHg 90%
20:00 +3°C° 0 mm 0 mps 689 mmHg 92%
21:00 +4°C° 0 mm 1 mps 689 mmHg 91%
22:00 +4°C° 0 mm 1 mps 689 mmHg 89%
23:00 +4°C° 0 mm 1 mps 688 mmHg 88%

Tomorrow, 8 March, Monday

Time Temperature Precipitation Wind Pressure Humidity
00:00 +4°C° 0 mm 1 mps 688 mmHg 86%
01:00 +5°C° 0 mm 1 mps 688 mmHg 85%
02:00 +5°C° 0 mm 1 mps 688 mmHg 83%
03:00 +5°C° 0 mm 1 mps 689 mmHg 83%
04:00 +5°C° 0 mm 1 mps 689 mmHg 82%
05:00 +5°C° 0 mm 1 mps 689 mmHg 82%
06:00 +4°C° 0 mm 2 mps 689 mmHg 81%
07:00 +4°C° 0 mm 2 mps 689 mmHg 80%
08:00 +4°C° 0 mm 2 mps 690 mmHg 79%
09:00 +4°C° 0 mm 3 mps 690 mmHg 78%
10:00 +6°C° 0 mm 4 mps 691 mmHg 77%
11:00 +7°C° 0 mm 5 mps 691 mmHg 75%
12:00 +7°C° 0.1 mm 5 mps 691 mmHg 72%
13:00 +8°C° 0.1 mm 6 mps 691 mmHg 68%
14:00 +9°C° 0.1 mm 6 mps 691 mmHg 65%
15:00 +9°C° 0 mm 5 mps 691 mmHg 66%
16:00 +8°C° 0 mm 4 mps 692 mmHg 67%
17:00 +8°C° 0 mm 4 mps 692 mmHg 68%
18:00 +8°C° 0 mm 3 mps 691 mmHg 70%
19:00 +6°C° 0 mm 2 mps 691 mmHg 72%
20:00 +5°C° 0 mm 2 mps 691 mmHg 74%
21:00 +5°C° 0 mm 2 mps 691 mmHg 72%
22:00 +4°C° 0 mm 2 mps 691 mmHg 70%
23:00 +4°C° 0 mm 2 mps 691 mmHg 67%

Day after tomorrow, 9 March, Tuesday

Time Temperature Precipitation Wind Pressure Humidity
00:00 +4°C° 0 mm 2 mps 691 mmHg 64%
01:00 +4°C° 0 mm 2 mps 690 mmHg 61%
02:00 +3°C° 0 mm 3 mps 690 mmHg 57%
03:00 +3°C° 0 mm 3 mps 690 mmHg 55%
04:00 +3°C° 0 mm 3 mps 689 mmHg 52%
05:00 +3°C° 0 mm 3 mps 689 mmHg 50%
06:00 +3°C° 0 mm 3 mps 689 mmHg 50%
07:00 +4°C° 0 mm 3 mps 689 mmHg 50%
08:00 +4°C° 0 mm 3 mps 689 mmHg 50%
09:00 +7°C° 0 mm 2 mps 688 mmHg 50%
10:00 +9°C° 0 mm 2 mps 688 mmHg 50%
11:00 +10°C° 0 mm 2 mps 688 mmHg 50%
12:00 +12°C° 0 mm 2 mps 688 mmHg 49%
13:00 +13°C° 0 mm 2 mps 688 mmHg 48%
14:00 +13°C° 0 mm 2 mps 687 mmHg 47%
15:00 +13°C° 0 mm 2 mps 687 mmHg 49%
16:00 +12°C° 0 mm 2 mps 687 mmHg 52%
17:00 +12°C° 0 mm 2 mps 686 mmHg 55%
18:00 +10°C° 0 mm 3 mps 686 mmHg 56%
19:00 +9°C° 0 mm 3 mps 685 mmHg 57%
20:00 +7°C° 0 mm 4 mps 685 mmHg 58%
21:00 +7°C° 0 mm 4 mps 685 mmHg 58%
22:00 +8°C° 0 mm 4 mps 685 mmHg 58%
23:00 +8°C° 0 mm 4 mps 685 mmHg 59%

10 March, Wednesday

Time Temperature Precipitation Wind Pressure Humidity
00:00 +7°C° 0.2 mm 4 mps 684 mmHg 65%
01:00 +7°C° 0.2 mm 4 mps 684 mmHg 71%
02:00 +6°C° 0.2 mm 4 mps 684 mmHg 78%
03:00 +7°C° 0.3 mm 4 mps 684 mmHg 75%
04:00 +7°C° 0.3 mm 5 mps 683 mmHg 72%
05:00 +7°C° 0.3 mm 5 mps 683 mmHg 70%
06:00 +7°C° 0.1 mm 4 mps 684 mmHg 69%
07:00 +7°C° 0.1 mm 4 mps 684 mmHg 69%
08:00 +9°C° 0.1 mm 3 mps 684 mmHg 68%
09:00 +8°C° 0.4 mm 4 mps 685 mmHg 69%
10:00 +8°C° 0.4 mm 5 mps 686 mmHg 71%
11:00 +9°C° 0.4 mm 6 mps 686 mmHg 72%
12:00 +9°C° 0.5 mm 7 mps 687 mmHg 70%
13:00 +10°C° 0.5 mm 8 mps 687 mmHg 67%
14:00 +10°C° 0.5 mm 8 mps 687 mmHg 65%
15:00 +9°C° 0.5 mm 7 mps 687 mmHg 67%
16:00 +9°C° 0.5 mm 6 mps 688 mmHg 68%
17:00 +8°C° 0.5 mm 4 mps 688 mmHg 70%
18:00 +7°C° 0.2 mm 4 mps 688 mmHg 75%
19:00 +7°C° 0.2 mm 3 mps 688 mmHg 81%
20:00 +4°C° 0.2 mm 3 mps 688 mmHg 87%
21:00 +3°C° 1.3 mm 3 mps 688 mmHg 88%
22:00 +2°C° 1.3 mm 3 mps 688 mmHg 90%
23:00 +1°C° 1.3 mm 3 mps 688 mmHg 92%

11 March, Thursday

Time Temperature Precipitation Wind Pressure Humidity
00:00 +2°C° 1.7 mm 2 mps 688 mmHg 94%
01:00 +2°C° 1.7 mm 1 mps 689 mmHg 96%
02:00 +1°C° 1.7 mm 1 mps 689 mmHg 97%
03:00 +1°C° 0.9 mm 1 mps 689 mmHg 97%
04:00 +1°C° 0.9 mm 1 mps 689 mmHg 97%
05:00 +1°C° 0.9 mm 1 mps 690 mmHg 97%
06:00 +1°C° 0.1 mm 1 mps 690 mmHg 96%
07:00 +1°C° 0.1 mm 1 mps 690 mmHg 96%
08:00 +1°C° 0.1 mm 1 mps 690 mmHg 96%
09:00 +2°C° 0 mm 1 mps 690 mmHg 95%
10:00 +2°C° 0 mm 1 mps 690 mmHg 95%
11:00 +2°C° 0 mm 1 mps 690 mmHg 94%
12:00 +3°C° 0 mm 1 mps 690 mmHg 92%
13:00 +4°C° 0 mm 1 mps 690 mmHg 90%
14:00 +4°C° 0 mm 1 mps 690 mmHg 88%
15:00 +5°C° 0 mm 1 mps 690 mmHg 86%
16:00 +5°C° 0 mm 1 mps 689 mmHg 84%
17:00 +5°C° 0 mm 1 mps 689 mmHg 82%
18:00 +4°C° 0 mm 1 mps 689 mmHg 81%
19:00 +2°C° 0 mm 2 mps 689 mmHg 80%
20:00 +1°C° 0 mm 2 mps 689 mmHg 80%
21:00 +1°C° 0 mm 2 mps 689 mmHg 75%
22:00 +1°C° 0 mm 2 mps 689 mmHg 70%
23:00 +1°C° 0 mm 2 mps 689 mmHg 65%

12 March, Friday

Time Temperature Precipitation Wind Pressure Humidity
00:00 +1°C° 0 mm 2 mps 688 mmHg 63%
01:00 0°C° 0 mm 3 mps 688 mmHg 60%
02:00 0°C° 0 mm 3 mps 687 mmHg 58%
03:00 0°C° 0 mm 3 mps 687 mmHg 55%
04:00 0°C° 0 mm 3 mps 686 mmHg 52%
05:00 +1°C° 0 mm 3 mps 686 mmHg 49%
06:00 +1°C° 0 mm 3 mps 686 mmHg 50%
07:00 +2°C° 0 mm 3 mps 686 mmHg 51%
08:00 +3°C° 0 mm 4 mps 685 mmHg 51%
09:00 +4°C° 0 mm 3 mps 685 mmHg 54%
10:00 +7°C° 0 mm 3 mps 685 mmHg 56%
11:00 +9°C° 0 mm 3 mps 684 mmHg 58%
12:00 +9°C° 0 mm 2 mps 684 mmHg 58%
13:00 +10°C° 0 mm 2 mps 684 mmHg 58%
14:00 +10°C° 0 mm 2 mps 683 mmHg 58%
15:00 +10°C° 0 mm 2 mps 683 mmHg 59%
16:00 +10°C° 0 mm 2 mps 683 mmHg 59%
17:00 +9°C° 0 mm 2 mps 683 mmHg 60%
18:00 +9°C° 0 mm 2 mps 683 mmHg 57%
19:00 +9°C° 0 mm 3 mps 683 mmHg 54%
20:00 +8°C° 0 mm 3 mps 683 mmHg 51%
21:00 +8°C° 0.3 mm 3 mps 684 mmHg 58%
22:00 +7°C° 0.3 mm 4 mps 684 mmHg 64%
23:00 +7°C° 0.3 mm 5 mps 684 mmHg 71%
Show more

We Need Your Consent

Meteoprog and our Service Providers may store and access personal data such as cookies, device identifiers or other similar technologies on your device and process such data to personalise content and ads, as well as provide social media features and to analyse the traffic.

  • Store and/or access information on your device

    Cookies, device identifiers or other information can be stored or accessed on your device for the purposes indicated above.

  • Personalised ads and content, ad and content measurement, audience insights, and products development

    Ads and content can be personalised based on a profile. More data can be added to better personalise ads and content. Ad and content performance can be measured. Insights about the audience who saw the ads and content can be derived. Such data can be used to develop or improve user’s experience, systems and software.

By clicking ‘I Agree’ you will allow the use of indicated cookies, device identifiers, web beacons or other similar technologies. Your settings can be changed in the browser on your device.

For certain purposes, legitimate interests may be relied on, rather than consent. You can read more about this in our Privacy and Cookie Policy.